Satellite: NOAA-11
Catalog number: 19531
Epoch time:      10237.82326346
Element set:    0192
Inclination:      098.7689 deg
RA of node:       325.6596 deg
Eccentricity:    0.0011042
Arg of perigee:   313.3440 deg
Mean anomaly:     046.6808 deg
Mean motion:   14.14932081 rev/day
Decay rate:      -2.21e-06 rev/day^2
Epoch rev:           13098
Checksum:              291

Satellite: NOAA-12
Catalog number: 21263
Epoch time:      10237.90280404
Element set:    0683
Inclination:      098.7649 deg
RA of node:       251.0552 deg
Eccentricity:    0.0011941
Arg of perigee:   328.5880 deg
Mean anomaly:     031.4574 deg
Mean motion:   14.25650221 rev/day
Decay rate:        2.5e-07 rev/day^2
Epoch rev:           00233
Checksum:              265

Satellite: MET-3/5
Catalog number: 21655
Epoch time:      10237.61573699
Element set:    0898
Inclination:      082.5539 deg
RA of node:       259.5805 deg
Eccentricity:    0.0013588
Arg of perigee:   169.8507 deg
Mean anomaly:     190.2850 deg
Mean motion:   13.17025045 rev/day
Decay rate:        5.1e-07 rev/day^2
Epoch rev:           91481
Checksum:              331

Satellite: MET-2/21
Catalog number: 22782
Epoch time:      10237.42326421
Element set:    0867
Inclination:      082.5470 deg
RA of node:       197.5099 deg
Eccentricity:    0.0021533
Arg of perigee:   204.7679 deg
Mean anomaly:     155.2443 deg
Mean motion:   13.83646354 rev/day
Decay rate:       -2.3e-07 rev/day^2
Epoch rev:           85765
Checksum:              314

Satellite: OKEAN-4
Catalog number: 23317
Epoch time:      10237.75849576
Element set:     321
Inclination:      082.5400 deg
RA of node:       288.9262 deg
Eccentricity:    0.0022711
Arg of perigee:   017.4056 deg
Mean anomaly:     342.7931 deg
Mean motion:   14.82850547 rev/day
Decay rate:        6.9e-07 rev/day^2
Epoch rev:           85676
Checksum:              313

Satellite: NOAA-14
Catalog number: 23455
Epoch time:      10237.71024022
Element set:    0173
Inclination:      098.8750 deg
RA of node:       317.9585 deg
Eccentricity:    0.0010057
Arg of perigee:   042.6016 deg
Mean anomaly:     317.5939 deg
Mean motion:   14.13791812 rev/day
Decay rate:       -5.0e-07 rev/day^2
Epoch rev:           80732
Checksum:              284

Satellite: NOAA-15
Catalog number: 25338
Epoch time:      10237.53429195
Element set:    0497
Inclination:      098.6245 deg
RA of node:       223.2361 deg
Eccentricity:    0.0009815
Arg of perigee:   229.8776 deg
Mean anomaly:     130.1532 deg
Mean motion:   14.24850193 rev/day
Decay rate:       -5.8e-07 rev/day^2
Epoch rev:           63862
Checksum:              317

Satellite: RESURS
Catalog number: 25394
Epoch time:      10238.74312747
Element set:     587
Inclination:      098.3052 deg
RA of node:       252.9820 deg
Eccentricity:    0.0002268
Arg of perigee:   039.6861 deg
Mean anomaly:     320.4471 deg
Mean motion:   14.24208300 rev/day
Decay rate:       -5.0e-08 rev/day^2
Epoch rev:           63039
Checksum:              281

Satellite: FENGYUN1
Catalog number: 25730
Epoch time:      10237.50959298
Element set:     120
Inclination:      098.7889 deg
RA of node:       200.6669 deg
Eccentricity:    0.0023428
Arg of perigee:   069.0186 deg
Mean anomaly:     291.3480 deg
Mean motion:   14.08260895 rev/day
Decay rate:       6.87e-06 rev/day^2
Epoch rev:           58144
Checksum:              330

Satellite: OKEAN-0
Catalog number: 25860
Epoch time:      10238.69252141
Element set:      82
Inclination:      097.8398 deg
RA of node:       209.0227 deg
Eccentricity:    0.0000893
Arg of perigee:   106.8830 deg
Mean anomaly:     253.2469 deg
Mean motion:   14.73657294 rev/day
Decay rate:        3.2e-07 rev/day^2
Epoch rev:           59728
Checksum:              313

Satellite: NOAA-16
Catalog number: 26536
Epoch time:      10237.57098825
Element set:    0975
Inclination:      099.1700 deg
RA of node:       256.6725 deg
Eccentricity:    0.0011109
Arg of perigee:   139.2429 deg
Mean anomaly:     220.9577 deg
Mean motion:   14.12572112 rev/day
Decay rate:      -2.61e-06 rev/day^2
Epoch rev:           51162
Checksum:              301

Satellite: NOAA-17
Catalog number: 27453
Epoch time:      10237.69024312
Element set:    0968
Inclination:      098.4256 deg
RA of node:       285.3148 deg
Eccentricity:    0.0010816
Arg of perigee:   296.4925 deg
Mean anomaly:     063.5148 deg
Mean motion:   14.24183271 rev/day
Decay rate:       -7.5e-07 rev/day^2
Epoch rev:           42459
Checksum:              318

Satellite: NOAA-18
Catalog number: 28654
Epoch time:      10237.70383718
Element set:    0454
Inclination:      098.9535 deg
RA of node:       183.7820 deg
Eccentricity:    0.0013674
Arg of perigee:   214.9924 deg
Mean anomaly:     145.0352 deg
Mean motion:   14.11381840 rev/day
Decay rate:       1.27e-06 rev/day^2
Epoch rev:           27124
Checksum:              304

